Time,TemperatureF,DewpointF,PressureIn,WindDirection,WindDirectionDegrees,WindSpeedMPH,WindSpeedGustMPH,Humidity,HourlyPrecipIn,Conditions,Clouds,dailyrainin,SoftwareType,DateUTC
2013-03-24 00:03:00,45.7,43.0,29.80,North,5,0.0,-999.0,89,-99.99,,,0.00,weatherlink.com 1.10,2013-03-24 04:03:00,
2013-03-24 00:18:00,45.1,43.0,29.82,North,5,0.0,-999.0,92,-99.99,,,0.02,weatherlink.com 1.10,2013-03-24 04:18:00,
2013-03-24 00:33:00,44.7,43.0,29.76,North,5,0.0,-999.0,94,-99.99,,,0.04,weatherlink.com 1.10,2013-03-24 04:33:00,
2013-03-24 00:48:00,44.6,43.0,29.74,NE,54,0.0,-999.0,94,-99.99,,,0.07,weatherlink.com 1.10,2013-03-24 04:48:00,
2013-03-24 01:03:00,45.0,44.0,29.74,NNE,12,0.0,-999.0,95,-99.99,,,0.10,weatherlink.com 1.10,2013-03-24 05:03:00,
2013-03-24 01:18:00,44.8,44.0,29.75,ENE,60,0.0,-999.0,96,-99.99,,,0.13,weatherlink.com 1.10,2013-03-24 05:18:00,
2013-03-24 01:33:00,46.1,45.0,29.73,NNE,25,0.0,-999.0,96,-99.99,,,0.16,weatherlink.com 1.10,2013-03-24 05:33:00,
2013-03-24 01:49:00,46.9,46.0,29.71,NNE,30,0.0,-999.0,96,-99.99,,,0.20,weatherlink.com 1.10,2013-03-24 05:49:00,
2013-03-24 02:03:00,47.3,46.0,29.69,North,7,1.0,-999.0,96,-99.99,,,0.23,weatherlink.com 1.10,2013-03-24 06:03:00,
2013-03-24 02:18:00,47.0,46.0,29.66,West,279,0.0,-999.0,96,-99.99,,,0.27,weatherlink.com 1.10,2013-03-24 06:18:00,
2013-03-24 02:34:00,46.7,46.0,29.67,West,270,0.0,-999.0,96,-99.99,,,0.31,weatherlink.com 1.10,2013-03-24 06:34:00,
2013-03-24 02:48:00,46.8,46.0,29.67,NW,304,0.0,-999.0,96,-99.99,,,0.34,weatherlink.com 1.10,2013-03-24 06:48:00,
2013-03-24 03:04:00,47.0,46.0,29.67,NW,305,0.0,-999.0,97,-99.99,,,0.38,weatherlink.com 1.10,2013-03-24 07:04:00,
2013-03-24 03:19:00,47.2,46.0,29.68,North,8,0.0,-999.0,97,-99.99,,,0.41,weatherlink.com 1.10,2013-03-24 07:19:00,
2013-03-24 03:34:00,47.9,47.0,29.67,NE,39,0.0,-999.0,97,-99.99,,,0.44,weatherlink.com 1.10,2013-03-24 07:34:00,
2013-03-24 03:50:00,48.1,47.0,29.64,NE,39,0.0,-999.0,97,-99.99,,,0.47,weatherlink.com 1.10,2013-03-24 07:50:00,
2013-03-24 04:04:00,48.4,48.0,29.62,NW,305,0.0,-999.0,97,-99.99,,,0.51,weatherlink.com 1.10,2013-03-24 08:04:00,
2013-03-24 04:19:00,48.6,48.0,29.60,NW,305,0.0,-999.0,97,-99.99,,,0.55,weatherlink.com 1.10,2013-03-24 08:19:00,
2013-03-24 04:34:00,48.6,48.0,29.61,NW,305,0.0,-999.0,97,-99.99,,,0.60,weatherlink.com 1.10,2013-03-24 08:34:00,
2013-03-24 04:49:00,48.0,47.0,29.60,NW,305,0.0,-999.0,97,-99.99,,,0.66,weatherlink.com 1.10,2013-03-24 08:49:00,
2013-03-24 05:04:00,48.0,47.0,29.61,NW,305,0.0,-999.0,97,-99.99,,,0.71,weatherlink.com 1.10,2013-03-24 09:04:00,
2013-03-24 05:19:00,47.8,47.0,29.61,NW,306,0.0,-999.0,97,-99.99,,,0.77,weatherlink.com 1.10,2013-03-24 09:19:00,
2013-03-24 05:34:00,47.9,47.0,29.61,NW,305,0.0,-999.0,97,-99.99,,,0.82,weatherlink.com 1.10,2013-03-24 09:34:00,
2013-03-24 05:49:00,47.9,47.0,29.61,NW,305,0.0,-999.0,97,-99.99,,,0.88,weatherlink.com 1.10,2013-03-24 09:49:00,
2013-03-24 06:04:00,47.8,47.0,29.57,NW,306,0.0,-999.0,97,-99.99,,,0.94,weatherlink.com 1.10,2013-03-24 10:04:00,
2013-03-24 06:19:00,48.3,48.0,29.60,WNW,284,0.0,-999.0,97,-99.99,,,1.00,weatherlink.com 1.10,2013-03-24 10:19:00,
2013-03-24 06:34:00,47.3,47.0,29.55,WSW,257,0.0,-999.0,97,-99.99,,,1.04,weatherlink.com 1.10,2013-03-24 10:34:00,
2013-03-24 06:49:00,47.7,47.0,29.57,WSW,257,0.0,-999.0,97,-99.99,,,1.08,weatherlink.com 1.10,2013-03-24 10:49:00,
2013-03-24 07:04:00,47.5,47.0,29.57,WSW,257,0.0,-999.0,97,-99.99,,,1.08,weatherlink.com 1.10,2013-03-24 11:04:00,
2013-03-24 07:19:00,47.5,47.0,29.56,WSW,257,0.0,-999.0,97,-99.99,,,1.08,weatherlink.com 1.10,2013-03-24 11:19:00,
2013-03-24 07:34:00,47.2,46.0,29.56,North,358,0.0,-999.0,97,-99.99,,,1.08,weatherlink.com 1.10,2013-03-24 11:34:00,
2013-03-24 07:49:00,47.7,47.0,29.57,WSW,247,0.0,-999.0,97,-99.99,,,1.08,weatherlink.com 1.10,2013-03-24 11:49:00,
2013-03-24 08:04:00,47.5,47.0,29.57,WSW,247,0.0,-999.0,97,-99.99,,,1.08,weatherlink.com 1.10,2013-03-24 12:04:00,
2013-03-24 08:19:00,46.6,46.0,29.56,WSW,247,0.0,-999.0,97,-99.99,,,1.08,weatherlink.com 1.10,2013-03-24 12:19:00,
2013-03-24 08:34:00,46.5,46.0,29.56,South,177,0.0,-999.0,97,-99.99,,,1.08,weatherlink.com 1.10,2013-03-24 12:34:00,
2013-03-24 08:49:00,45.9,45.0,29.56,South,177,0.0,-999.0,97,-99.99,,,1.08,weatherlink.com 1.10,2013-03-24 12:49:00,
2013-03-24 09:04:00,45.9,45.0,29.55,South,177,0.0,-999.0,97,-99.99,,,1.08,weatherlink.com 1.10,2013-03-24 13:04:00,
2013-03-24 09:19:00,46.1,45.0,29.56,South,177,0.0,-999.0,97,-99.99,,,1.08,weatherlink.com 1.10,2013-03-24 13:19:00,
2013-03-24 09:34:00,46.5,46.0,29.56,East,92,0.0,-999.0,97,-99.99,,,1.09,weatherlink.com 1.10,2013-03-24 13:34:00,
2013-03-24 09:49:00,46.5,46.0,29.56,East,92,0.0,-999.0,97,-99.99,,,1.09,weatherlink.com 1.10,2013-03-24 13:49:00,
2013-03-24 10:04:00,47.7,47.0,29.57,East,92,0.0,-999.0,97,-99.99,,,1.09,weatherlink.com 1.10,2013-03-24 14:04:00,
2013-03-24 10:19:00,47.4,47.0,29.57,East,96,0.0,-999.0,98,-99.99,,,1.09,weatherlink.com 1.10,2013-03-24 14:19:00,
2013-03-24 10:34:00,47.7,47.0,29.58,East,99,0.0,-999.0,97,-99.99,,,1.09,weatherlink.com 1.10,2013-03-24 14:34:00,
2013-03-24 10:49:00,47.7,47.0,29.58,East,99,0.0,-999.0,97,-99.99,,,1.09,weatherlink.com 1.10,2013-03-24 14:49:00,
2013-03-24 11:04:00,49.1,49.0,29.57,East,99,0.0,-999.0,98,-99.99,,,1.09,weatherlink.com 1.10,2013-03-24 15:04:00,
2013-03-24 11:19:00,50.3,50.0,29.54,WNW,289,0.0,-999.0,98,-99.99,,,1.09,weatherlink.com 1.10,2013-03-24 15:19:00,
2013-03-24 11:34:00,50.6,50.0,29.54,WNW,289,0.0,-999.0,98,-99.99,,,1.09,weatherlink.com 1.10,2013-03-24 15:34:00,
2013-03-24 11:49:00,51.0,51.0,29.54,WNW,289,0.0,-999.0,98,-99.99,,,1.09,weatherlink.com 1.10,2013-03-24 15:49:00,
2013-03-24 12:04:00,50.8,50.0,29.54,WNW,283,0.0,-999.0,98,-99.99,,,1.09,weatherlink.com 1.10,2013-03-24 16:04:00,
2013-03-24 12:19:00,51.4,51.0,29.53,NW,321,0.0,-999.0,98,-99.99,,,1.09,weatherlink.com 1.10,2013-03-24 16:19:00,
2013-03-24 12:34:00,51.4,51.0,29.52,North,351,0.0,-999.0,98,-99.99,,,1.09,weatherlink.com 1.10,2013-03-24 16:34:00,
2013-03-24 12:49:00,51.8,51.0,29.52,North,1,0.0,-999.0,97,-99.99,,,1.09,weatherlink.com 1.10,2013-03-24 16:49:00,
2013-03-24 13:04:00,51.7,51.0,29.51,ESE,109,0.0,-999.0,97,-99.99,,,1.09,weatherlink.com 1.10,2013-03-24 17:04:00,
2013-03-24 13:19:00,51.8,51.0,29.51,NNE,20,0.0,-999.0,96,-99.99,,,1.09,weatherlink.com 1.10,2013-03-24 17:19:00,
2013-03-24 13:34:00,52.7,51.0,29.50,North,11,0.0,-999.0,94,-99.99,,,1.09,weatherlink.com 1.10,2013-03-24 17:34:00,
2013-03-24 13:49:00,52.1,50.0,29.50,WSW,248,0.0,-999.0,93,-99.99,,,1.09,weatherlink.com 1.10,2013-03-24 17:49:00,
2013-03-24 14:04:00,51.4,50.0,29.49,NNE,18,0.0,-999.0,93,-99.99,,,1.09,weatherlink.com 1.10,2013-03-24 18:04:00,
2013-03-24 14:19:00,51.2,49.0,29.49,NE,37,0.0,-999.0,93,-99.99,,,1.09,weatherlink.com 1.10,2013-03-24 18:19:00,
2013-03-24 14:34:00,51.2,49.0,29.47,NNE,25,0.0,-999.0,93,-99.99,,,1.09,weatherlink.com 1.10,2013-03-24 18:34:00,
2013-03-24 14:49:00,51.4,49.0,29.46,WNW,302,0.0,-999.0,92,-99.99,,,1.09,weatherlink.com 1.10,2013-03-24 18:49:00,
2013-03-24 15:04:00,51.6,49.0,29.44,NNE,30,0.0,-999.0,92,-99.99,,,1.09,weatherlink.com 1.10,2013-03-24 19:04:00,
2013-03-24 15:19:00,52.3,50.0,29.45,NW,320,1.0,-999.0,90,-99.99,,,1.09,weatherlink.com 1.10,2013-03-24 19:19:00,
2013-03-24 15:34:00,51.9,49.0,29.43,East,84,0.0,-999.0,90,-99.99,,,1.09,weatherlink.com 1.10,2013-03-24 19:34:00,
2013-03-24 15:49:00,51.5,49.0,29.42,NE,41,0.0,-999.0,91,-99.99,,,1.09,weatherlink.com 1.10,2013-03-24 19:49:00,
2013-03-24 16:04:00,51.3,49.0,29.41,NNE,16,0.0,-999.0,91,-99.99,,,1.09,weatherlink.com 1.10,2013-03-24 20:04:00,
2013-03-24 16:19:00,51.1,49.0,29.40,North,3,0.0,-999.0,91,-99.99,,,1.09,weatherlink.com 1.10,2013-03-24 20:19:00,
2013-03-24 16:34:00,50.9,48.0,29.39,East,99,0.0,-999.0,91,-99.99,,,1.09,weatherlink.com 1.10,2013-03-24 20:34:00,
2013-03-24 16:49:00,50.4,48.0,29.38,NNE,13,0.0,-999.0,92,-99.99,,,1.09,weatherlink.com 1.10,2013-03-24 20:49:00,
2013-03-24 17:04:00,50.1,48.0,29.37,NE,45,0.0,-999.0,93,-99.99,,,1.09,weatherlink.com 1.10,2013-03-24 21:04:00,
2013-03-24 17:19:00,49.5,48.0,29.37,West,260,0.0,-999.0,94,-99.99,,,1.12,weatherlink.com 1.10,2013-03-24 21:19:00,
2013-03-24 17:34:00,50.3,49.0,29.40,South,188,7.0,-999.0,96,-99.99,,,1.16,weatherlink.com 1.10,2013-03-24 21:34:00,
2013-03-24 17:49:00,50.2,47.0,29.41,WSW,256,7.0,-999.0,89,-99.99,,,1.20,weatherlink.com 1.10,2013-03-24 21:49:00,
2013-03-24 18:04:00,49.5,46.0,29.41,East,91,8.0,-999.0,86,-99.99,,,1.21,weatherlink.com 1.10,2013-03-24 22:04:00,
2013-03-24 18:19:00,48.9,45.0,29.43,WSW,242,1.0,-999.0,85,-99.99,,,1.21,weatherlink.com 1.10,2013-03-24 22:19:00,
2013-03-24 18:34:00,48.5,41.0,29.44,SSW,193,16.0,-999.0,76,-99.99,,,1.21,weatherlink.com 1.10,2013-03-24 22:34:00,
2013-03-24 18:49:00,48.3,40.0,29.44,SW,227,11.0,-999.0,73,-99.99,,,1.21,weatherlink.com 1.10,2013-03-24 22:49:00,
2013-03-24 19:04:00,48.2,40.0,29.45,South,179,7.0,-999.0,72,-99.99,,,1.21,weatherlink.com 1.10,2013-03-24 23:04:00,
2013-03-24 19:19:00,48.1,39.0,29.45,SE,135,10.0,-999.0,70,-99.99,,,1.21,weatherlink.com 1.10,2013-03-24 23:19:00,
2013-03-24 19:34:00,48.3,39.0,29.45,WNW,290,8.0,-999.0,70,-99.99,,,1.21,weatherlink.com 1.10,2013-03-24 23:34:00,
2013-03-24 19:49:00,47.9,38.0,29.45,SW,223,9.0,-999.0,68,-99.99,,,1.21,weatherlink.com 1.10,2013-03-24 23:49:00,
2013-03-24 20:04:00,47.6,36.0,29.47,SW,218,4.0,-999.0,64,-99.99,,,1.21,weatherlink.com 1.10,2013-03-25 00:04:00,
2013-03-24 20:19:00,46.7,35.0,29.49,South,181,9.0,-999.0,65,-99.99,,,1.21,weatherlink.com 1.10,2013-03-25 00:19:00,
2013-03-24 20:34:00,44.4,33.0,29.52,SSW,209,15.0,-999.0,65,-99.99,,,1.21,weatherlink.com 1.10,2013-03-25 00:34:00,
2013-03-24 20:49:00,41.6,31.0,29.54,WSW,257,10.0,-999.0,65,-99.99,,,1.21,weatherlink.com 1.10,2013-03-25 00:49:00,
2013-03-24 21:04:00,39.9,29.0,29.56,North,1,4.0,-999.0,66,-99.99,,,1.22,weatherlink.com 1.10,2013-03-25 01:04:00,
2013-03-24 21:19:00,39.4,30.0,29.56,SSW,193,3.0,-999.0,68,-99.99,,,1.22,weatherlink.com 1.10,2013-03-25 01:19:00,
2013-03-24 21:34:00,39.1,30.0,29.57,WSW,252,9.0,-999.0,70,-99.99,,,1.22,weatherlink.com 1.10,2013-03-25 01:34:00,
2013-03-24 21:49:00,38.9,30.0,29.58,SSE,161,3.0,-999.0,70,-99.99,,,1.22,weatherlink.com 1.10,2013-03-25 01:49:00,
2013-03-24 22:04:00,38.7,30.0,29.57,SSE,162,9.0,-999.0,70,-99.99,,,1.22,weatherlink.com 1.10,2013-03-25 02:04:00,
2013-03-24 22:19:00,38.4,29.0,29.58,SE,127,7.0,-999.0,70,-99.99,,,1.22,weatherlink.com 1.10,2013-03-25 02:19:00,
2013-03-24 22:34:00,38.2,29.0,29.59,WNW,285,5.0,-999.0,70,-99.99,,,1.22,weatherlink.com 1.10,2013-03-25 02:34:00,
2013-03-24 22:49:00,38.0,29.0,29.59,North,10,3.0,-999.0,70,-99.99,,,1.22,weatherlink.com 1.10,2013-03-25 02:49:00,
2013-03-24 23:05:00,37.7,29.0,29.60,East,100,3.0,-999.0,71,-99.99,,,1.22,weatherlink.com 1.10,2013-03-25 03:05:00,
2013-03-24 23:19:00,37.5,29.0,29.60,NW,308,4.0,-999.0,72,-99.99,,,1.22,weatherlink.com 1.10,2013-03-25 03:19:00,
2013-03-24 23:34:00,37.4,29.0,29.60,NE,54,2.0,-999.0,71,-99.99,,,1.22,weatherlink.com 1.10,2013-03-25 03:34:00,
2013-03-24 23:49:00,36.9,28.0,29.61,SE,137,7.0,-999.0,70,-99.99,,,1.22,weatherlink.com 1.10,2013-03-25 03:49:00,